Location: Maccacari
(45.1333°N, 11.1333°E)
Time: 07:12:49
(UTC+00:00)

SR - Pass Details

Date: 28 January 2021
Orbit: 573 x 882 km, 66.7° (Epoch: 04 March)

Event Time Altitude Azimuth Distance (km) Brightness Sun altitude
Exits shadow 05:36:33 10° 317° (NW) 2,296 ? -11.3°
Reaches altitude 10° 05:36:34 10° 317° (NW) 2,295 ? -11.3°
Maximum altitude 05:38:16 11° 336° (NNW) 2,230 ? -11.1°
Drops below altitude 10° 05:40:00 10° 355° (N) 2,363 ? -10.8°
Sets 05:44:32 0° 28° (NNE) 3,375 ? -10.0°
